STARLINK-34493 (64472 NORAD) Tracking and Keplerian Element Data

This shows tracking and keplerian element data for the satellite.

Feedback or suggestion? Click here.




ElementValue
Catalog64472
NameSTARLINK-34493
Epoch Orbit2895
Epoch Day353.79938233
Epoch Year2025
RAAN128.1169
Inclination53.1585
Eccentricity8.8E-05
Argument of Perigee83.459
Mean Anonmoly276.6511
Mean Motion15.30212325
Decay Rate0.00021675
L11 64472U 25133A 25353.79938233 .00021675 00000+0 74153-3 0 9992
L22 64472 53.1585 128.1169 0000880 83.4590 276.6511 15.30212325 28951



Live tracking and technical data element details for STARLINK-34493 (NORAD 64472). STARLINK-34493 can be tracked NOW for your location showing map with azimuth and elevation plus other details from your city location.







IsCatalogInMostPopularTable: catalog: 64472, numindb: 11
Update: records affected: 1



GetName: 64472 STARLINK-34493

Hit Count: updated at: Mon, 20 Apr 2026 09:20:15 GMT